Theta_e
327 329 332 333 335 335 335 334 333 331 331 332 331 331 332 331 332 333 331 330 329 329 327 327 325 326 325 325 324 323 323 324 325 325 324 324 328 323 321 321 319 322 323 322 322 322 321 319 321 320 320 321 319 319 323 324 324 323 325 323 322 322 320 315 310 309 312 312 311 309 309 309 306 306 305 305 306 305 306 304 305 301 299 298 299
328 329 328 329 331 331 331 329 329 329 328 331 331 331 331 332 334 332 330 330 330 327 324 328 329 326 324 323 322 326 325 324 321 324 322 324 320 321 320 320 319 320 321 321 319 320 320 317 317 319 319 319 318 316 319 323 322 323 322 321 320 321 322 315 311 309 306 309 309 309 308 310 307 309 307 306 306 307 306 306 307 303 301 299 298
330 330 328 329 331 329 330 327 328 329 330 331 331 330 331 333 333 331 330 330 330 329 327 328 326 326 325 327 325 323 325 322 321 322 321 319 319 320 319 316 317 316 318 318 319 317 318 318 317 317 320 318 317 323 319 319 323 321 321 320 319 320 319 317 312 309 306 308 308 307 308 311 307 305 307 309 308 308 305 305 305 305 304 301 299
331 330 330 331 331 330 329 327 326 327 328 330 330 330 331 332 334 332 331 331 328 330 330 328 326 328 326 323 322 326 324 322 320 321 320 319 318 317 317 314 315 316 316 318 316 318 317 317 316 315 317 317 316 324 320 322 318 320 321 320 320 319 319 318 316 310 309 307 306 306 310 309 307 308 309 307 307 305 304 306 306 305 304 304 301
328 328 328 329 329 329 327 326 326 327 329 329 329 331 330 331 333 330 330 330 328 327 327 327 327 323 325 323 321 321 322 320 318 317 316 316 315 315 313 314 315 317 317 314 313 317 317 315 314 317 317 318 319 319 320 320 318 321 319 318 318 319 319 318 315 315 310 307 308 310 309 308 309 307 307 306 306 306 306 306 305 305 305 304 304
328 327 329 329 329 328 327 326 326 326 328 329 329 329 330 330 331 330 329 328 328 328 325 326 323 322 322 321 321 321 320 320 319 318 314 313 315 316 316 316 316 316 316 318 317 317 315 315 316 316 315 315 316 318 318 319 320 318 318 317 316 317 317 316 316 312 311 307 308 307 308 308 306 307 307 307 305 305 303 305 307 307 306 305 303
331 330 330 330 329 329 327 326 325 325 328 330 330 330 329 329 327 326 329 329 328 327 326 324 325 322 322 322 321 323 320 319 321 319 317 311 312 313 316 315 317 318 317 316 316 316 317 314 314 311 310 310 311 311 313 315 319 318 317 320 318 317 313 314 314 314 313 309 309 307 308 308 307 306 306 308 309 306 304 304 302 303 304 305 304
329 329 330 330 328 328 329 331 330 329 330 330 329 328 328 329 328 324 326 328 327 325 324 324 325 322 324 324 322 327 321 319 319 316 317 313 315 315 316 316 315 315 316 316 317 315 315 312 310 309 306 305 307 305 308 310 315 317 316 316 315 315 315 315 312 312 313 309 307 306 308 306 307 309 308 306 304 306 308 308 301 301 302 303 303
328 328 329 329 329 329 330 330 331 331 330 329 329 329 329 328 328 326 325 327 328 326 326 325 323 320 320 327 324 324 321 320 321 319 318 311 314 315 315 315 315 314 314 313 314 315 311 309 308 307 308 308 307 305 306 308 309 308 308 310 312 317 315 312 314 312 311 310 309 309 307 305 305 307 302 302 306 304 305 307 304 303 301 302 302
328 328 327 329 330 328 328 329 329 330 328 328 328 328 328 328 327 326 326 326 326 328 327 326 323 322 320 321 324 324 321 321 316 311 312 316 313 311 316 315 314 314 313 312 313 311 308 307 309 310 308 308 304 301 299 300 304 305 303 304 305 306 309 311 311 312 310 309 307 307 306 305 305 306 304 305 306 306 304 305 303 304 302 301 302
326 325 325 326 329 329 329 328 328 327 327 328 328 328 327 327 327 326 326 326 325 326 328 327 327 325 320 322 323 325 323 316 304 297 299 303 315 316 314 314 313 314 313 312 312 310 308 307 307 310 309 306 303 299 298 298 298 298 299 302 305 303 303 303 304 311 310 310 311 308 307 305 308 307 306 307 305 305 302 303 305 301 301 297 295
325 322 323 323 325 328 328 329 328 327 327 326 327 328 327 327 326 326 327 325 324 325 324 325 326 327 325 322 322 322 320 307 297 298 298 298 304 313 315 314 314 313 312 312 311 310 309 310 311 313 310 308 305 303 302 300 297 297 296 296 295 296 298 299 302 302 304 308 308 308 308 307 306 306 307 306 305 306 305 305 307 304 302 301 298
324 324 324 323 325 328 329 328 328 327 327 326 326 327 325 324 324 324 324 326 325 324 323 323 325 325 325 321 321 321 314 299 297 298 298 297 296 308 313 313 313 313 313 312 311 310 311 312 313 312 307 309 309 306 304 302 302 302 302 302 300 297 296 297 298 303 303 306 308 308 310 309 305 306 309 307 307 305 305 304 304 306 305 300 298
327 319 316 323 324 326 326 327 328 328 329 329 328 326 326 325 325 324 323 323 322 322 321 320 323 324 322 320 321 321 312 301 297 297 296 296 296 299 310 313 313 313 312 313 311 311 310 310 308 307 307 309 311 308 307 307 307 307 308 304 306 308 305 301 301 302 308 310 309 308 308 311 308 307 308 308 306 303 302 304 303 304 302 300 301
315 315 315 316 316 321 324 323 324 324 326 327 328 326 325 324 324 323 323 322 322 322 321 320 321 323 322 321 320 321 313 298 296 296 295 295 295 298 310 311 312 312 312 311 312 311 310 311 308 306 306 308 304 305 307 308 308 309 308 307 303 301 299 298 298 302 306 307 307 304 304 305 307 307 308 309 310 308 308 306 307 304 303 304 303
313 315 314 314 315 315 316 324 322 323 323 325 326 327 326 324 322 322 320 320 321 322 323 323 321 321 322 321 319 320 312 296 295 295 295 294 295 307 309 310 313 311 310 310 310 310 311 309 308 306 307 303 302 296 299 304 307 306 306 302 301 299 297 297 294 296 300 301 302 301 298 298 298 299 300 305 308 309 309 308 307 304 301 298 297
313 314 314 314 314 315 314 315 318 318 320 323 323 326 326 326 325 324 322 321 321 319 320 322 322 322 321 321 319 319 308 297 295 295 295 294 297 305 307 309 310 311 309 309 310 309 309 308 308 306 305 302 297 292 293 306 307 305 304 302 301 300 299 299 295 293 293 293 293 293 293 293 294 294 293 294 298 306 308 304 302 303 300 299 300
311 312 312 313 314 315 314 314 314 314 315 317 324 325 327 326 326 327 323 322 320 321 322 322 323 323 322 321 319 318 309 300 295 295 295 294 303 305 307 310 309 308 309 309 309 308 312 312 308 305 302 298 291 292 294 303 307 305 304 302 301 299 298 300 300 298 294 293 292 292 292 293 295 295 294 294 296 304 305 304 302 302 302 303 298
310 311 312 312 312 314 316 315 315 315 315 316 323 325 326 325 325 323 322 322 321 323 323 323 323 323 322 322 322 319 310 302 294 295 294 294 301 306 307 308 309 308 308 307 309 307 307 309 314 307 301 297 290 291 294 303 306 306 303 303 300 299 299 300 299 298 299 299 300 302 300 302 306 303 301 297 298 309 307 305 304 303 301 302 301
310 312 312 312 312 313 314 315 316 316 315 316 320 324 325 324 322 319 320 322 321 321 321 321 321 321 321 322 322 320 312 304 299 294 295 294 298 305 306 308 309 308 308 305 306 306 304 303 302 294 292 290 290 290 290 293 302 306 306 303 302 300 301 302 302 301 301 303 301 303 302 304 305 303 303 303 304 307 303 304 305 304 303 302 304
311 312 312 311 311 311 313 314 315 315 316 316 317 326 323 323 321 319 318 319 319 318 319 319 319 320 321 321 322 321 315 306 300 294 295 295 295 301 304 307 311 309 309 306 305 304 302 301 298 293 290 290 290 290 291 291 294 306 303 304 305 305 304 302 304 306 305 305 305 304 304 304 303 302 302 302 302 304 306 304 304 304 303 303 301
311 311 311 310 311 311 312 313 316 315 315 316 316 323 323 321 319 320 318 318 317 318 318 317 318 319 320 320 321 321 319 309 305 295 294 294 295 296 305 307 313 314 309 308 306 305 301 301 296 292 290 290 290 290 292 294 296 302 299 293 294 299 304 304 303 304 303 304 303 303 303 302 301 301 301 301 302 303 305 305 304 305 305 304 303
309 310 311 310 310 311 311 312 312 310 313 316 313 313 324 321 321 320 319 318 317 318 317 317 317 317 318 319 320 320 321 312 302 300 294 294 294 295 297 303 300 313 315 310 308 308 303 302 298 293 289 290 290 290 292 295 300 297 291 292 292 292 300 303 300 302 300 300 301 301 301 301 301 300 300 300 303 303 304 304 304 303 302 303 303
309 309 310 310 310 310 310 310 311 312 314 314 312 312 313 319 326 324 322 319 317 316 315 315 315 316 316 316 318 319 320 316 303 300 298 293 294 294 294 296 298 308 313 311 313 312 307 301 296 290 290 290 290 290 290 292 297 290 291 291 293 297 302 303 303 305 305 301 302 301 300 300 301 300 301 302 301 303 303 302 303 304 302 302 301
308 308 308 309 309 310 310 310 310 311 312 311 310 311 311 317 324 323 322 321 317 314 314 314 315 315 316 315 317 318 319 319 308 300 296 295 293 293 293 294 294 295 304 311 307 306 302 295 291 289 290 290 290 290 292 293 291 290 291 292 303 299 300 302 302 304 300 299 299 301 301 301 302 302 302 302 302 302 302 303 304 303 301 300 299
307 307 307 308 309 308 308 308 308 310 312 311 310 310 310 310 316 324 323 322 318 316 315 315 314 314 314 315 316 317 318 318 311 305 300 299 296 293 293 294 296 296 301 298 292 293 294 292 290 290 290 291 293 295 297 296 292 291 290 294 300 299 300 301 303 301 299 298 297 298 299 300 300 302 302 301 300 298 299 299 299 298 299 299 299
306 306 307 307 307 308 308 307 306 307 308 308 308 309 308 309 309 309 315 321 319 317 316 315 314 315 316 317 316 316 317 318 314 307 303 302 300 299 296 297 297 296 298 303 301 296 293 293 292 291 291 292 293 295 297 294 295 296 296 297 298 298 300 301 304 301 301 299 298 298 299 300 300 298 298 298 298 298 299 298 298 296 299 298 297
306 306 306 306 305 305 306 303 306 306 306 307 307 307 307 308 307 308 308 311 320 317 317 315 314 314 315 315 315 315 316 317 316 309 305 303 301 301 300 301 301 301 300 304 305 298 297 294 293 296 295 295 296 297 298 297 297 296 297 296 296 297 301 306 307 303 302 303 299 299 298 298 297 297 297 297 298 297 299 298 298 297 298 298 295
306 305 305 304 304 305 305 305 305 305 305 305 306 306 305 307 308 309 312 312 313 315 319 320 317 315 316 316 313 312 314 315 317 305 306 300 302 303 302 301 302 303 303 301 305 301 298 296 296 296 295 295 295 296 297 297 296 297 299 298 297 297 298 299 301 301 302 303 300 299 297 296 295 296 296 297 298 297 299 299 300 299 297 296 293
304 303 303 304 304 304 304 303 303 304 305 305 305 307 301 300 302 306 308 304 302 300 303 313 315 315 316 318 320 317 315 318 305 300 299 298 298 299 299 299 298 303 300 296 302 301 298 297 297 296 295 295 295 295 295 297 297 296 296 295 296 296 296 298 300 300 302 302 301 298 297 296 295 295 296 297 297 297 297 298 297 298 295 294 293
302 302 301 301 301 302 302 302 303 304 305 306 306 305 306 307 300 298 298 298 296 298 298 298 298 298 308 314 314 307 308 301 299 299 297 298 298 297 297 296 297 297 297 300 302 305 300 299 298 298 297 296 296 296 296 296 297 296 296 296 297 297 295 298 299 298 299 302 300 299 298 296 295 295 295 296 296 295 297 297 297 299 296 294 293
300 300 300 300 300 301 302 302 303 304 304 305 304 303 302 303 304 300 298 298 298 296 296 296 296 297 297 301 310 316 303 298 298 296 296 297 297 297 296 296 296 296 296 297 298 300 305 303 301 300 299 298 297 297 298 298 298 298 297 296 296 297 297 297 299 300 299 299 300 296 298 297 296 295 296 296 294 295 295 295 296 296 295 296 294
299 299 300 300 301 301 302 303 303 303 303 302 303 303 302 301 300 300 302 298 298 297 296 297 296 295 296 296 296 300 305 305 298 297 296 296 296 297 296 295 296 296 296 298 299 299 302 304 304 304 302 301 300 299 299 299 299 299 299 297 296 297 298 299 299 300 298 299 301 299 298 297 296 295 292 294 294 294 294 295 295 295 296 295 293
299 300 300 301 301 301 300 301 301 301 302 302 302 301 300 301 300 300 300 302 303 301 298 298 297 296 296 295 296 296 296 296 299 297 296 294 294 295 295 297 294 295 297 301 302 301 301 302 304 305 304 303 302 300 299 300 300 301 300 300 299 299 299 300 300 299 297 297 299 298 297 297 295 296 296 297 296 295 294 293 295 294 293 295 293
300 296 294 296 298 298 298 299 299 300 301 300 299 299 299 300 300 300 300 300 301 301 302 305 301 297 301 300 298 296 296 295 296 294 294 293 294 294 295 300 298 297 297 301 302 302 301 301 302 304 305 303 302 302 301 302 301 301 301 300 300 300 300 300 300 299 298 298 298 299 297 297 297 295 294 296 294 295 295 293 295 294 293 295 293
299 299 298 297 297 296 296 297 298 298 297 297 298 299 300 300 300 301 300 301 302 302 303 304 306 300 297 295 295 297 295 295 295 294 294 293 293 296 301 301 302 300 298 300 302 302 303 302 302 303 305 305 304 303 303 303 302 302 302 301 301 300 300 300 298 298 299 299 298 299 298 298 297 296 297 298 298 296 296 294 295 296 294 295 294
297 297 296 295 295 294 295 295 296 296 292 296 298 300 301 301 301 300 300 301 300 301 302 303 304 305 302 306 298 292 293 293 293 294 293 293 293 299 305 305 304 303 300 301 301 303 304 304 305 305 304 304 305 304 304 304 304 303 301 302 302 302 300 300 299 295 298 297 299 298 298 298 298 297 297 293 292 295 296 295 295 293 291 293 290
296 295 295 294 293 293 294 294 294 291 295 296 298 298 298 298 299 299 299 300 300 300 301 303 301 303 304 311 308 304 295 292 292 292 292 293 293 301 306 307 306 305 303 302 302 303 304 305 306 305 305 306 306 305 305 305 304 304 303 302 302 301 298 297 295 298 298 297 298 298 294 297 298 297 292 292 291 291 294 293 295 293 292 291 291
294 291 289 288 289 293 293 293 294 294 295 295 296 296 295 297 298 298 298 298 299 300 300 303 303 304 304 314 307 303 301 303 303 301 299 300 300 302 304 307 307 306 306 304 303 303 305 307 308 309 309 309 307 306 305 304 305 304 304 303 301 301 299 299 298 298 296 296 294 295 294 295 295 294 292 292 291 292 293 294 294 295 293 291 292
293 293 291 288 291 292 292 292 293 294 293 294 295 295 294 294 294 294 294 295 296 297 298 300 301 302 303 304 308 306 306 307 306 306 304 302 301 302 304 305 307 307 306 306 305 305 305 307 308 308 310 312 311 308 306 305 305 304 304 302 301 300 300 299 297 296 295 296 293 293 294 294 294 293 293 292 292 294 293 292 292 295 295 295 293
292 292 289 289 289 292 292 292 292 293 293 293 294 293 293 292 292 293 294 295 295 297 298 299 300 302 302 299 297 298 307 309 309 308 307 305 304 304 304 305 306 307 307 307 306 305 306 307 308 309 310 311 311 311 309 306 305 304 304 302 301 297 299 299 298 297 296 294 293 292 293 294 293 293 292 292 293 293 291 291 291 292 293 292 294
290 290 291 291 292 292 291 290 292 292 292 293 293 292 292 292 293 293 293 294 295 296 298 299 301 303 301 298 299 298 306 310 309 311 311 311 308 306 305 306 307 308 308 308 308 307 307 307 308 309 310 310 310 310 309 306 305 304 304 304 302 299 295 298 298 297 297 294 293 293 292 293 293 293 293 293 292 292 291 291 292 292 293 292 291
290 291 291 290 291 291 291 291 292 292 292 292 292 290 291 292 293 293 294 295 296 297 298 300 301 302 302 296 297 295 306 310 304 308 309 310 311 309 308 307 308 309 309 310 310 309 309 309 308 308 309 310 311 310 310 308 306 306 306 305 303 302 300 297 297 297 297 294 294 292 293 293 293 293 292 292 293 292 291 294 292 291 291 293 291
290 290 290 290 291 290 291 291 291 291 292 291 290 291 291 293 293 294 295 296 297 298 300 301 301 302 303 302 301 304 308 309 308 308 308 308 310 310 311 312 310 309 310 310 311 310 310 310 310 310 310 311 312 312 312 311 309 308 307 305 300 299 302 298 296 297 296 295 293 292 293 292 292 292 292 292 293 292 292 292 291 291 291 293 293
290 290 290 290 289 289 289 290 290 291 290 291 292 292 292 293 293 294 295 296 295 296 298 298 300 300 301 302 300 301 302 305 304 305 306 307 308 310 312 312 311 310 310 309 310 311 311 310 311 311 311 311 311 311 310 310 311 311 308 306 302 297 301 302 300 300 299 296 293 292 292 292 293 293 292 293 292 292 291 291 291 290 290 291 292
290 290 288 288 288 287 288 288 288 289 289 290 291 290 291 292 292 292 293 293 292 293 294 295 297 297 297 298 297 296 297 299 302 304 303 302 303 307 312 311 311 312 311 310 311 311 311 311 310 310 311 311 311 311 308 309 311 311 312 310 306 304 305 305 304 302 301 299 295 293 293 292 294 293 292 293 292 292 292 292 291 291 290 290 291
290 289 288 288 287 287 287 287 287 287 288 288 288 288 289 289 290 290 290 290 290 290 291 292 293 294 294 295 294 294 294 295 295 298 300 300 300 301 304 309 311 311 311 312 312 312 312 310 310 311 311 311 312 312 310 309 309 310 311 311 309 306 305 304 304 304 303 302 299 295 294 293 293 292 292 292 292 292 291 292 291 291 291 290 290
289 288 288 287 287 286 286 286 285 285 286 286 286 287 287 288 288 288 289 288 289 289 289 290 291 291 292 292 292 292 292 293 293 294 295 296 297 298 299 299 301 307 309 310 310 309 308 308 308 309 309 309 310 311 309 308 307 308 310 310 310 304 300 298 305 305 304 303 301 299 297 295 294 294 292 294 293 291 291 291 290 291 291 290 290
289 288 287 287 286 285 285 284 284 284 284 285 285 285 286 286 286 287 287 287 288 287 287 288 288 288 289 290 290 290 289 289 290 292 293 293 294 295 295 296 296 298 301 303 306 307 309 310 308 307 307 307 308 308 308 306 306 307 307 308 305 294 294 293 298 304 302 304 302 301 299 298 296 295 293 293 293 292 292 292 291 291 290 290 290
288 287 287 286 286 285 285 285 284 284 284 284 284 284 284 285 285 285 285 285 286 286 286 287 287 287 287 288 288 288 287 287 288 290 291 291 292 293 293 294 294 294 297 298 299 300 302 304 306 307 307 308 307 307 307 307 306 305 306 305 294 293 293 293 294 294 297 303 303 301 300 299 297 296 295 295 295 294 292 291 291 290 291 290 290
287 287 287 286 286 285 285 284 283 283 283 283 283 283 283 283 283 284 284 284 285 285 285 286 286 286 286 287 287 287 286 287 288 288 289 290 290 291 291 291 292 292 293 294 295 296 298 298 298 299 300 299 300 302 303 304 304 303 297 294 295 294 293 291 298 292 291 293 302 302 301 299 298 296 295 295 296 295 292 291 291 291 291 291 290
Wind_Speed
2 8 8 10 9 8 7 7 7 7 8 8 7 6 5 6 6 5 5 4 4 4 4 5 5 3 4 3 3 4 3 2 2 0 1 2 1 1 3 3 3 2 2 2 2 1 3 5 2 3 3 3 4 4 4 4 5 3 3 2 2 0 2 3 6 5 3 4 4 3 4 5 5 6 5 4 9 8 8 8 7 5 6 4 3
6 7 8 10 10 8 9 10 8 10 15 10 6 6 5 4 5 6 5 5 4 5 5 3 3 4 3 3 4 1 2 3 4 1 2 2 3 2 0 1 2 2 1 2 1 1 1 3 3 3 1 2 3 4 2 4 4 5 5 4 1 2 2 5 5 5 3 3 4 5 3 4 3 4 5 5 4 8 8 7 6 6 6 5 4
2 8 10 8 6 7 6 8 10 11 13 13 7 6 5 4 4 5 5 5 4 3 3 3 3 3 3 2 2 3 2 3 3 2 1 1 1 2 3 1 0 2 1 3 0 3 2 0 2 2 2 1 3 1 2 2 3 4 6 5 5 5 4 3 5 4 5 3 5 4 3 3 4 4 5 4 4 4 4 4 5 5 4 4 4
7 9 8 5 1 2 3 6 9 9 10 11 11 7 4 3 2 3 4 4 5 3 3 3 3 2 3 3 3 2 2 3 3 2 1 2 1 1 2 3 2 1 2 2 3 3 3 2 1 0 2 1 3 0 2 1 2 5 3 4 4 6 6 5 5 6 5 5 5 6 4 2 4 5 4 4 4 4 3 3 4 6 6 5 5
6 6 4 2 2 4 7 7 7 7 6 7 11 10 7 3 2 4 4 4 4 5 3 3 3 4 3 3 3 4 3 3 3 4 3 1 0 1 1 2 1 0 3 3 2 2 2 1 2 3 2 3 1 4 1 4 4 4 5 4 5 6 6 5 5 5 6 5 5 3 5 3 3 4 5 4 4 4 5 5 4 5 6 7 5
4 4 5 3 2 5 5 5 5 6 4 4 5 9 11 4 3 3 4 5 4 4 4 3 3 4 4 4 3 4 4 3 3 3 5 4 1 0 1 1 2 1 2 0 2 3 0 3 2 4 6 7 6 5 6 6 4 1 3 5 4 3 4 6 4 6 5 5 4 4 3 5 3 2 4 5 5 4 3 3 3 3 3 5 4
3 2 2 3 3 4 4 4 4 5 3 2 2 2 10 7 7 7 4 4 4 4 4 5 4 4 5 4 3 2 4 4 2 3 2 4 3 3 2 1 1 1 1 2 2 1 1 3 6 7 5 5 5 6 6 7 6 4 5 1 2 4 4 3 4 3 5 6 4 4 3 4 3 3 3 4 4 6 5 5 3 3 4 3 5
5 4 3 3 2 2 3 4 3 3 0 1 2 2 5 7 5 9 9 5 5 6 5 4 3 3 3 3 3 2 4 3 3 3 2 4 2 2 2 1 2 2 1 1 2 2 4 8 5 5 5 5 4 5 5 5 6 4 7 5 4 3 2 4 4 1 2 5 4 4 3 4 3 3 3 3 3 2 4 3 6 3 4 2 3
5 5 5 3 3 3 2 2 3 2 1 1 0 1 1 5 4 8 12 8 5 5 4 4 4 4 4 2 2 2 4 3 2 2 1 4 3 2 2 2 2 2 2 3 1 2 8 5 5 4 6 8 9 7 7 6 6 6 7 7 7 5 2 3 1 3 4 3 5 5 4 5 4 2 4 2 1 2 1 3 4 5 5 3 3
5 6 7 6 5 4 4 5 4 3 1 1 1 1 2 4 3 4 8 10 9 3 3 3 3 3 3 3 3 2 3 2 7 11 8 3 2 3 2 1 1 2 2 3 2 6 7 5 4 10 10 9 9 9 10 12 11 7 5 6 6 7 7 2 1 2 4 3 5 6 5 6 5 4 3 1 4 2 3 2 3 3 5 4 3
10 7 7 8 6 6 5 5 4 3 2 1 1 2 3 4 4 4 4 8 10 7 3 2 2 3 3 3 3 2 3 5 11 12 10 7 4 1 2 1 0 2 2 2 2 5 6 6 4 6 8 8 7 10 9 9 10 11 12 12 9 6 4 5 7 6 1 2 4 4 4 5 3 4 4 3 3 4 3 1 4 3 4 5 2
6 8 9 9 8 7 5 4 4 4 3 3 3 1 1 1 2 2 1 3 8 9 9 4 2 3 3 3 3 3 3 9 12 12 10 7 4 2 2 1 1 1 3 3 3 4 5 6 5 4 4 5 5 5 6 6 8 9 10 10 10 10 7 4 3 4 5 5 1 3 2 4 5 4 3 4 3 3 3 1 1 3 1 3 4
2 6 6 7 6 5 5 5 4 5 3 2 2 1 2 2 1 3 3 3 3 2 5 10 4 3 3 3 3 3 5 9 12 12 10 8 4 1 2 2 2 3 2 3 3 4 4 3 2 3 4 7 5 4 4 3 5 6 8 9 9 10 11 11 8 4 3 6 2 3 3 3 6 3 3 4 4 3 0 1 2 1 5 7 3
3 7 9 5 4 5 6 6 5 5 5 3 2 2 1 1 0 2 4 4 5 4 5 7 8 4 4 4 4 4 8 9 13 12 11 9 6 2 2 2 2 2 2 1 3 3 4 3 4 3 3 3 2 4 4 3 2 1 1 3 4 7 10 11 10 12 9 6 6 6 6 6 4 5 5 4 3 4 3 2 2 4 6 4 4
12 11 11 11 10 7 5 7 7 7 5 4 3 2 2 2 1 2 3 2 4 5 5 6 7 5 4 4 4 3 7 13 13 13 12 10 8 3 2 3 3 1 2 3 2 3 2 3 4 4 4 3 4 5 4 1 3 2 4 5 5 5 5 5 6 5 5 6 5 4 5 6 6 6 5 4 6 4 4 3 3 5 5 4 3
11 10 11 10 11 12 12 5 7 8 8 5 5 3 1 2 3 3 3 3 2 3 4 5 6 7 5 5 5 4 8 14 14 14 13 11 10 3 2 4 2 2 3 3 3 2 1 2 3 4 4 4 5 9 6 3 1 3 4 4 4 3 3 2 2 5 5 5 4 4 4 5 6 7 7 6 4 3 3 5 3 3 5 5 5
10 9 9 9 10 10 12 12 11 11 10 6 6 4 3 2 2 3 3 3 3 3 4 5 7 7 6 6 7 4 8 12 14 15 14 13 9 4 3 4 3 3 3 3 3 3 3 2 3 3 4 3 5 9 7 6 0 4 4 4 4 3 3 2 2 6 7 8 8 6 6 8 9 10 11 10 7 5 2 2 2 4 4 4 4
12 11 10 9 9 8 10 11 12 11 12 10 6 6 4 2 3 2 3 4 5 5 6 5 5 6 6 7 8 5 8 12 14 15 15 14 11 6 5 4 4 4 3 3 3 3 3 4 4 5 5 4 6 9 7 3 1 3 4 4 4 4 3 2 2 3 5 7 7 6 6 6 8 9 9 10 9 5 4 4 3 3 4 5 6
11 11 11 12 11 8 7 8 9 10 10 10 7 3 2 3 3 2 2 4 5 6 6 5 5 4 7 7 8 5 7 10 13 14 15 15 11 5 5 4 4 4 4 4 3 5 3 4 5 6 7 6 8 8 7 4 1 1 4 4 4 4 4 4 3 2 1 2 1 2 2 1 1 3 3 7 6 5 3 1 6 4 5 3 8
11 10 11 11 11 10 8 6 6 7 9 8 5 3 2 0 1 3 3 2 4 6 7 6 5 5 3 5 6 4 6 9 12 14 15 15 14 9 5 5 4 6 4 5 4 4 5 3 4 11 13 11 8 7 6 4 2 1 2 4 5 5 5 4 4 5 3 4 3 3 3 2 2 3 1 1 1 1 2 3 4 5 4 6 5
11 10 9 11 12 12 10 9 8 7 6 5 6 1 3 1 2 3 3 4 5 7 5 6 7 7 7 5 2 4 4 9 11 15 15 16 16 12 7 5 4 6 5 6 4 5 6 4 4 8 12 10 9 7 4 2 2 2 4 4 4 4 5 3 1 4 3 4 4 4 4 3 3 3 2 2 3 1 1 1 3 5 6 6 6
11 11 11 12 12 13 12 10 6 6 6 6 7 3 4 3 4 2 1 3 5 6 6 5 7 8 6 6 6 4 5 12 10 14 16 16 17 16 8 7 3 1 7 5 6 6 6 6 6 8 11 10 9 7 3 0 4 5 3 5 9 13 3 3 2 2 3 3 3 5 6 5 5 4 4 4 3 4 1 3 3 4 5 4 4
11 10 11 11 11 11 11 13 11 9 6 6 8 9 2 5 3 1 4 5 4 4 2 2 5 6 6 5 6 6 5 9 15 13 15 15 17 17 15 11 5 0 1 4 6 5 7 7 8 13 12 11 9 7 5 5 6 3 5 7 8 9 4 2 5 5 6 5 5 5 5 5 6 6 6 6 4 4 1 4 2 4 4 4 5
10 9 7 9 10 11 11 11 11 9 7 6 8 9 8 3 1 1 2 4 4 4 3 2 2 4 6 6 6 7 7 5 12 17 14 15 15 16 17 16 10 4 1 3 3 0 7 9 11 16 14 13 10 7 3 2 3 5 4 5 5 5 2 3 4 3 2 3 3 4 3 4 5 7 5 5 6 4 5 3 2 2 4 4 4
9 9 10 10 9 10 11 10 9 8 7 7 9 8 7 5 0 1 2 2 2 4 4 3 4 3 3 5 5 4 4 4 7 11 18 18 17 15 14 16 16 8 2 0 2 4 5 17 19 18 15 13 12 8 4 5 8 5 4 2 3 3 3 4 3 2 2 1 2 3 2 4 6 7 7 6 6 5 3 3 3 4 5 6 4
12 12 12 10 10 11 12 11 10 8 7 7 8 8 7 6 3 1 2 2 3 4 4 4 5 5 4 4 5 6 5 4 7 8 10 13 14 15 15 16 15 10 3 5 4 4 14 18 20 18 15 13 9 5 4 4 3 3 2 2 3 3 4 5 3 5 4 3 5 4 4 7 5 4 5 6 5 5 3 3 4 3 4 3 4
12 11 12 12 10 10 11 11 12 11 9 8 8 7 8 6 6 7 2 3 3 3 4 4 5 5 5 3 4 6 6 5 5 7 7 7 7 8 9 9 7 1 3 1 5 6 8 11 12 13 12 15 12 9 7 6 3 1 1 2 3 4 4 5 3 6 4 5 4 4 4 6 6 5 4 4 4 5 4 5 4 4 4 4 4
13 12 13 11 11 11 11 14 14 11 11 11 10 9 7 6 6 6 7 4 2 5 4 5 5 5 5 3 1 3 7 7 5 8 9 8 7 8 9 8 9 7 5 3 4 7 7 6 6 5 6 5 5 5 5 5 4 3 3 3 4 4 5 6 3 3 4 2 6 4 6 6 6 4 4 4 5 6 6 6 5 6 6 6 5
12 14 13 11 11 10 10 10 10 11 11 11 10 10 10 7 6 6 5 5 4 3 4 4 5 6 6 5 5 5 6 7 7 9 12 14 11 10 9 11 10 8 7 8 8 7 7 6 6 5 5 6 6 6 5 6 5 5 5 5 4 5 5 4 3 3 4 2 5 7 7 6 5 4 5 5 5 6 5 7 5 7 6 6 6
11 11 12 12 11 12 10 10 10 11 10 10 10 9 13 12 10 8 8 12 10 6 3 4 6 6 5 5 5 6 6 5 6 13 13 14 15 16 15 15 13 10 10 11 9 8 8 8 7 7 7 7 7 7 7 7 7 7 7 7 6 5 5 5 4 4 3 3 3 7 7 6 6 6 6 5 6 5 4 4 4 5 6 5 7
10 11 11 11 12 12 11 10 11 10 10 10 9 9 9 10 13 16 16 15 11 12 11 12 14 14 9 8 5 6 8 11 14 13 14 15 17 17 15 14 15 15 16 10 6 7 8 8 8 8 8 8 7 7 7 7 7 7 7 7 6 7 6 5 5 5 5 4 3 6 7 6 6 6 5 5 6 5 4 3 3 4 4 4 7
11 11 12 12 12 11 11 11 10 9 9 10 10 9 10 10 10 12 18 20 19 15 15 17 18 16 17 13 9 4 6 10 11 14 13 15 16 16 15 16 16 16 17 15 7 6 9 9 9 9 9 9 9 8 8 8 8 8 8 7 8 7 7 7 6 6 6 6 4 5 7 6 5 6 5 5 7 5 6 4 3 4 4 3 6
13 12 12 11 11 12 10 11 11 12 11 11 10 10 10 10 11 12 13 16 19 19 19 20 21 18 16 16 12 10 7 4 10 11 14 15 16 17 17 16 16 17 14 10 10 9 10 10 9 9 9 9 9 9 9 8 8 8 8 8 8 8 7 7 6 6 6 6 5 5 6 6 5 6 5 5 7 5 6 6 4 5 5 3 6
13 11 11 11 12 12 13 12 12 12 12 11 11 12 12 11 12 12 12 11 11 11 13 15 16 17 15 12 11 11 12 10 7 9 12 12 14 14 13 8 9 13 15 13 12 11 11 11 10 9 9 9 8 8 9 9 9 8 8 8 8 8 8 7 7 7 5 7 6 5 6 6 6 6 6 5 7 5 7 6 5 6 6 3 7
12 13 14 12 12 12 12 12 13 12 11 11 12 13 12 11 10 10 11 11 12 11 10 10 12 9 9 9 9 13 13 9 4 5 8 9 10 10 11 7 6 5 8 9 11 11 11 11 10 8 8 9 9 9 9 9 9 8 8 8 8 8 8 8 8 8 7 6 7 5 6 6 6 5 7 5 7 5 6 6 5 5 5 3 6
13 12 13 13 13 13 13 12 12 12 12 13 12 12 10 10 10 10 11 11 10 10 11 11 11 14 13 12 10 4 3 5 6 5 4 7 11 15 8 7 7 8 10 11 11 11 10 10 10 9 8 7 8 9 9 9 9 8 8 8 8 9 9 8 8 8 8 6 7 7 7 6 7 6 6 6 7 7 5 7 5 5 6 4 7
12 12 12 13 13 13 13 12 12 12 13 12 12 11 10 10 11 12 12 12 11 10 11 12 11 11 8 3 8 7 6 6 7 8 8 7 12 11 8 8 9 8 8 10 10 9 9 10 10 10 10 8 7 9 9 8 8 9 8 9 8 9 10 8 9 6 8 7 6 7 6 8 6 7 6 6 6 6 6 7 6 5 7 4 7
12 12 12 11 13 14 13 12 13 13 12 11 12 12 12 12 12 12 11 11 12 11 11 10 10 10 10 4 3 3 5 7 9 7 6 8 7 8 8 7 7 8 9 9 10 10 11 9 9 10 12 10 8 5 7 8 8 9 8 8 8 7 11 10 10 9 8 8 6 8 6 8 6 7 6 6 6 6 6 8 6 6 6 4 6
12 13 13 15 13 12 12 12 12 12 12 13 12 12 11 12 12 12 13 13 14 15 14 11 10 10 10 3 1 4 4 1 2 5 5 5 6 6 6 7 7 8 8 9 10 10 10 11 8 5 6 8 9 7 4 5 6 8 8 8 8 6 9 9 9 9 8 8 6 7 6 6 6 6 6 6 7 7 6 5 7 6 7 5 5
13 12 12 14 11 12 11 10 11 11 11 12 12 12 11 12 13 13 14 14 14 13 13 13 12 11 11 12 4 2 4 4 4 3 3 4 5 6 7 8 9 9 9 9 9 10 11 10 9 9 9 6 7 7 7 8 7 7 8 7 8 7 8 9 9 9 8 9 6 6 6 6 6 5 6 5 6 7 7 5 6 7 7 6 5
12 12 11 10 12 11 11 12 11 12 12 11 12 12 12 12 12 12 13 13 12 12 11 11 12 11 11 13 17 12 7 6 3 4 5 6 6 7 8 8 8 8 8 8 8 9 10 10 9 9 8 8 9 9 9 9 7 6 6 7 7 8 7 8 9 9 9 7 6 6 6 6 7 6 7 6 7 7 5 5 5 5 7 5 7
12 11 11 11 12 11 11 10 11 12 12 11 11 11 12 12 12 12 12 12 12 12 12 12 11 10 12 18 17 13 4 6 7 7 7 3 4 6 6 7 7 8 8 8 8 9 10 10 9 9 9 9 9 10 9 7 7 6 6 7 7 7 6 8 9 10 8 7 7 6 6 7 7 7 8 8 6 6 5 5 6 5 7 6 6
11 10 10 9 11 11 11 11 11 11 11 11 11 10 10 10 11 11 11 11 12 13 14 13 11 11 12 16 18 16 7 6 6 6 8 8 6 4 5 6 7 7 8 7 7 8 9 9 10 10 10 8 7 7 7 5 7 7 6 6 6 8 8 7 7 8 7 7 7 7 6 7 7 6 7 7 7 7 6 6 6 5 6 7 6
9 10 9 10 10 11 10 11 10 10 11 11 11 9 9 10 11 11 12 12 13 13 11 12 12 13 12 12 13 12 9 9 9 10 9 8 8 7 5 4 4 6 6 7 7 7 9 9 9 9 10 9 6 3 3 3 3 5 8 7 7 8 9 8 7 9 8 8 8 7 6 7 7 6 7 7 7 8 7 6 6 6 5 7 7
10 10 10 10 10 10 11 11 11 11 11 11 10 10 10 10 10 10 11 11 11 12 12 12 11 12 13 12 13 12 13 12 10 10 12 11 9 8 6 6 6 6 6 6 7 7 8 9 9 8 8 8 7 6 3 2 4 6 5 8 8 7 9 9 8 8 9 9 8 7 7 7 7 7 7 8 8 8 8 6 7 7 6 6 7
10 10 9 9 10 10 10 11 11 11 11 11 11 11 11 11 11 11 10 11 12 12 13 12 12 12 12 12 13 13 13 13 13 11 11 12 12 12 9 6 6 5 5 5 5 6 7 7 8 8 8 8 8 5 4 3 6 5 5 5 4 7 8 8 7 8 9 10 8 8 8 7 8 7 9 8 7 8 8 7 7 7 7 7 7
10 9 10 10 10 10 10 10 10 11 11 11 11 12 11 12 11 11 11 12 12 11 12 12 12 11 11 11 12 12 12 12 12 12 12 12 12 13 14 13 12 8 2 1 2 2 1 3 4 6 7 7 7 6 4 4 5 2 5 6 8 3 8 7 6 9 9 10 10 8 8 8 8 7 8 9 7 7 8 8 8 8 8 6 7
9 9 10 10 10 10 10 10 11 11 11 11 11 11 10 11 11 11 11 12 12 12 12 12 11 11 11 11 11 11 12 11 11 12 12 13 12 13 14 15 15 12 8 7 6 5 3 3 4 4 4 2 1 3 2 3 3 4 5 4 5 8 9 5 5 8 8 9 11 11 11 9 8 8 7 10 9 8 9 8 7 7 7 7 6
9 10 10 10 10 10 10 10 10 10 11 11 11 11 11 11 10 10 11 11 11 11 11 11 11 12 11 11 10 11 11 12 12 12 12 12 13 12 14 15 15 14 13 12 11 12 12 9 4 3 2 2 3 4 4 3 2 1 2 2 6 12 10 13 9 6 6 11 9 11 10 10 10 11 9 9 9 9 9 8 8 9 8 7 6
9 9 9 10 10 10 10 9 9 9 10 10 10 10 11 11 10 11 11 11 11 11 11 11 11 11 11 11 12 12 12 12 12 11 11 13 12 13 14 15 15 14 13 12 12 11 11 13 12 10 8 6 6 4 5 4 3 3 3 5 9 10 10 11 11 12 11 4 11 10 11 10 10 10 9 10 10 11 10 9 9 8 9 9 8
9 9 9 9 9 9 10 10 10 10 10 10 10 10 10 10 11 11 11 11 11 11 11 11 11 11 11 11 11 11 11 12 11 10 11 12 12 12 13 13 12 13 13 13 13 13 12 12 11 12 14 16 16 14 12 12 12 11 10 8 8 7 9 8 5 9 10 10 5 10 10 11 11 11 9 10 10 10 11 11 9 10 9 9 9
Wind_Direction
226 247 290 290 275 262 263 264 282 300 261 223 222 212 213 197 181 171 166 181 187 178 197 188 202 185 204 175 222 169 160 159 117 197 206 168 155 33 359 348 330 301 27 104 166 287 347 330 93 61 7 348 340 313 171 143 135 142 145 125 122 59 104 130 128 132 106 130 151 124 110 135 142 156 142 121 126 140 141 147 153 133 122 127 110
263 269 256 253 268 316 353 329 349 300 286 266 220 220 222 206 169 170 176 188 189 176 203 191 218 191 216 200 159 265 133 150 126 138 281 107 145 151 187 303 301 319 31 326 116 146 306 323 31 53 2 303 317 300 18 144 153 141 123 142 136 115 122 143 134 137 134 139 108 99 139 224 120 112 96 90 97 138 154 169 157 138 127 141 127
326 274 262 274 334 347 343 348 317 306 291 280 246 223 221 219 179 177 181 180 185 182 213 167 207 227 190 226 150 160 186 121 107 107 179 224 255 147 145 220 359 327 282 252 277 99 244 57 38 44 303 325 285 314 316 293 143 145 144 164 165 170 159 149 132 127 160 152 122 152 179 226 123 129 128 140 147 135 132 137 132 123 129 129 136
160 206 235 267 227 147 170 195 254 277 293 298 304 263 232 220 202 185 194 181 175 184 207 194 191 227 237 178 183 157 149 123 139 170 62 37 15 11 115 148 197 213 275 6 35 10 37 18 142 182 310 280 320 202 289 299 255 156 147 155 137 134 156 154 153 147 169 142 164 169 158 154 120 119 121 137 146 113 108 133 136 141 146 145 142
290 276 267 201 165 189 199 207 212 249 270 288 290 304 294 240 205 201 203 200 192 171 187 218 196 201 222 217 185 162 177 152 156 147 139 160 173 119 223 66 36 8 45 62 13 359 37 91 18 359 313 330 248 343 4 288 265 110 141 143 154 159 160 162 161 152 135 137 187 133 150 132 132 130 150 149 112 134 166 173 159 146 157 155 147
213 261 298 301 210 215 215 226 233 241 261 274 289 300 298 282 209 227 217 208 213 172 183 192 209 219 203 215 221 174 175 156 151 159 133 139 141 53 37 146 203 132 129 43 118 117 175 33 36 19 19 17 7 360 351 338 359 164 204 150 141 156 161 155 164 144 137 156 164 120 143 122 102 179 160 137 163 170 135 143 167 143 143 132 136
360 329 309 291 275 234 251 260 255 263 264 236 243 280 281 282 300 274 252 225 211 198 187 185 190 227 205 191 223 184 162 148 137 99 137 139 157 153 174 141 105 81 159 136 135 84 45 75 55 50 43 30 29 12 356 352 340 13 16 99 110 106 76 128 113 104 125 157 116 132 128 116 152 190 169 163 192 164 164 156 98 67 37 93 161
354 354 351 333 301 291 294 295 288 273 250 154 154 201 283 305 305 290 279 250 222 205 205 191 180 215 248 194 201 176 126 131 139 144 193 118 115 125 155 204 136 137 183 99 78 121 81 68 64 57 62 49 44 27 26 355 340 5 21 18 64 68 63 74 90 112 167 113 123 142 139 134 176 229 126 161 208 195 167 145 130 142 108 53 24
353 348 352 360 345 311 269 248 263 275 275 229 183 72 32 312 288 278 285 271 234 224 191 192 182 198 232 222 206 152 132 136 174 171 160 118 123 189 150 188 143 163 138 117 170 102 75 80 72 81 89 87 74 66 47 33 33 36 21 23 16 16 74 93 78 180 105 148 130 148 132 135 200 130 114 211 294 165 95 54 130 143 135 121 66
353 347 356 358 347 347 339 332 340 351 6 29 47 86 192 195 232 269 277 273 275 242 213 193 188 195 213 217 211 149 140 132 102 86 65 75 145 189 150 105 211 128 132 96 91 82 96 95 107 108 98 90 79 68 66 59 57 58 53 39 35 35 13 5 211 176 140 196 160 149 156 162 187 154 147 189 129 128 64 56 120 123 112 103 101
352 360 5 11 2 351 357 353 342 354 360 5 151 236 205 184 199 232 302 318 278 261 260 205 215 201 207 215 182 162 147 123 123 110 99 71 36 358 120 202 289 108 104 151 128 119 122 128 145 130 113 91 87 88 79 80 85 79 67 65 61 57 34 38 10 345 102 213 141 140 159 175 155 139 152 162 102 114 156 199 124 154 163 127 87
332 10 21 23 14 3 360 350 344 344 360 11 349 245 199 186 175 138 62 10 334 335 308 294 232 218 209 223 178 184 122 138 130 125 117 104 73 15 298 148 140 167 188 151 152 137 135 148 157 169 134 136 131 103 90 91 100 93 86 83 75 62 70 71 20 8 19 352 116 137 173 147 128 141 150 110 115 77 108 229 117 182 198 94 133
5 27 17 23 20 354 347 358 353 344 344 358 309 284 211 198 141 92 129 162 124 69 310 294 269 234 207 237 197 180 129 156 140 137 138 133 121 67 281 174 174 221 166 189 152 127 134 125 130 107 127 145 133 119 122 103 78 92 110 98 86 82 56 35 30 25 319 349 352 90 20 131 126 169 134 122 117 117 212 187 99 1 56 89 112
47 13 15 37 2 6 354 358 1 353 338 338 334 350 357 91 54 190 181 161 144 162 197 252 265 230 204 225 219 175 144 165 149 145 144 150 150 168 298 236 202 216 193 156 107 128 133 147 131 120 129 201 135 128 140 134 139 140 124 91 77 49 32 27 18 13 23 41 21 31 31 21 79 90 83 89 107 141 216 125 142 82 88 98 120
7 9 9 6 1 6 358 22 359 0 352 345 336 345 26 16 65 360 319 207 169 175 202 235 257 243 211 211 225 182 160 166 158 152 151 156 155 140 268 285 219 210 130 95 106 113 136 148 144 138 160 96 64 68 45 24 147 117 90 74 63 55 39 32 27 18 26 43 39 46 33 44 44 47 42 55 71 55 43 77 82 116 134 125 92
2 5 3 5 1 358 5 42 358 356 1 2 350 350 117 187 218 213 226 274 256 187 215 229 244 250 224 206 222 199 160 169 162 158 154 160 146 161 222 257 211 167 132 125 118 123 113 115 117 139 126 103 90 81 68 14 101 119 100 95 86 71 61 54 18 42 62 62 62 61 58 64 69 72 61 54 55 39 47 64 97 121 126 148 164
354 1 1 357 355 10 13 9 6 352 345 345 359 346 348 313 246 223 232 249 252 255 247 234 236 242 230 212 207 194 145 180 167 162 160 157 146 172 220 228 203 163 153 144 163 153 160 156 140 135 107 111 102 90 65 46 359 128 133 131 126 120 119 133 94 76 87 94 97 99 100 79 64 63 60 58 61 34 12 133 206 201 187 184 169
353 353 352 357 356 7 15 9 356 350 340 347 354 11 345 320 318 345 291 275 262 252 249 245 255 259 257 234 207 192 170 181 178 166 163 162 162 171 214 210 198 161 154 160 174 160 118 140 158 128 121 134 128 102 83 67 346 146 122 133 133 122 135 153 117 72 78 82 84 87 84 86 88 71 58 50 39 31 53 321 223 206 246 220 152
352 350 352 353 348 5 21 4 352 341 342 351 5 5 7 351 314 307 286 297 294 279 257 255 261 285 294 279 237 196 162 181 186 174 168 169 168 179 205 222 191 162 161 166 192 129 123 79 40 127 130 140 131 107 93 79 11 150 151 159 150 139 159 154 133 139 140 109 91 96 57 22 97 75 60 59 31 9 351 354 10 12 343 337 111
350 351 357 352 343 355 5 360 347 338 335 347 356 344 327 121 291 301 306 284 261 277 294 289 278 261 281 304 314 284 170 173 187 186 177 176 177 178 201 237 201 169 173 165 190 151 123 92 83 121 129 137 129 109 94 94 100 329 184 180 142 138 165 159 164 172 181 165 170 170 158 187 118 101 107 88 67 27 331 8 20 17 7 27 336
341 350 358 351 345 349 349 344 344 338 334 341 326 246 295 236 232 243 272 295 306 296 285 290 292 276 262 260 281 271 220 173 188 190 188 183 185 182 196 228 226 167 183 167 188 155 143 142 127 141 139 140 129 112 110 150 242 86 77 86 115 109 96 97 42 126 138 139 152 153 156 163 147 152 169 161 169 179 296 61 14 53 25 25 27
340 349 355 348 340 336 334 329 335 335 336 323 312 289 236 245 237 295 250 224 242 261 285 290 280 276 264 248 248 239 202 184 179 199 195 192 190 191 194 215 245 184 177 186 188 160 156 154 145 160 149 143 132 125 137 15 119 95 102 129 110 100 112 140 167 188 144 170 173 165 168 172 172 164 172 173 181 171 226 68 59 58 58 36 51
340 345 347 338 333 329 330 328 323 329 320 326 330 316 261 241 256 197 248 274 284 280 257 259 275 267 268 254 246 233 219 187 181 190 207 200 197 199 202 211 171 278 244 194 191 169 161 148 147 156 154 146 138 145 152 111 90 112 129 95 98 116 121 197 199 202 179 186 184 168 178 175 176 164 168 174 144 128 131 102 86 81 71 40 35
335 341 338 330 328 324 323 318 319 318 322 344 326 313 312 302 176 289 221 241 266 273 270 307 288 266 250 256 244 242 228 188 187 189 190 211 210 206 209 219 214 197 85 23 342 273 163 146 157 157 155 148 143 152 142 290 138 147 117 121 121 107 121 267 221 213 169 143 139 142 195 190 161 154 164 130 115 103 86 91 72 75 108 101 65
343 342 337 332 326 321 315 317 315 326 340 337 315 310 307 327 132 220 213 239 240 249 284 265 267 275 264 261 253 246 239 194 168 192 190 197 211 212 213 224 232 216 206 94 57 334 142 152 151 154 153 146 136 124 109 118 137 141 138 167 180 169 194 241 203 157 115 148 150 174 198 82 63 70 78 84 86 82 79 74 69 71 73 70 73
353 344 336 331 326 325 320 321 327 333 329 322 318 316 317 325 327 237 177 235 236 258 262 262 259 252 233 251 255 259 236 195 172 185 200 200 208 209 214 218 232 224 225 78 71 99 148 152 153 150 143 139 140 151 145 151 146 134 157 263 240 229 224 224 185 144 192 184 185 184 145 112 113 110 103 106 116 122 133 115 106 94 102 111 93
345 338 333 331 330 332 336 341 340 333 328 327 319 321 325 333 334 328 333 197 250 241 262 269 269 260 264 206 198 239 260 230 167 176 189 204 203 190 222 246 267 302 243 191 89 83 129 145 154 159 159 159 151 146 130 126 127 180 218 239 250 251 256 265 196 171 208 196 162 155 124 109 108 108 129 141 150 154 153 151 150 163 169 145 115
346 342 339 338 339 342 344 342 337 330 331 331 327 325 324 323 327 325 324 323 218 269 232 255 264 261 254 234 226 272 247 239 202 173 184 189 192 196 197 195 208 201 184 187 126 118 118 99 107 112 119 130 145 156 147 163 175 182 207 213 236 256 260 267 295 183 220 207 150 126 103 113 125 157 168 182 173 165 170 171 171 173 173 143 125
347 340 338 338 333 342 341 338 329 331 329 326 324 319 308 312 315 312 304 312 309 261 272 243 238 258 262 233 180 216 248 245 232 185 186 185 180 184 188 198 204 200 183 157 123 122 118 136 147 148 160 165 170 178 174 172 187 193 204 208 214 234 246 239 228 237 222 217 146 129 136 135 154 175 192 192 162 166 190 184 164 160 168 159 141
343 342 342 335 339 344 339 331 327 320 317 315 320 321 323 330 332 324 319 312 315 295 251 277 285 286 282 262 213 213 230 231 160 171 177 172 180 187 192 195 190 176 168 186 156 149 156 158 170 170 172 184 183 188 187 184 185 191 199 214 212 213 221 227 210 216 230 222 161 137 147 155 167 187 200 171 146 163 201 151 159 169 175 175 147
349 346 341 339 343 338 328 321 317 316 324 332 328 332 331 332 328 322 315 319 312 300 292 271 278 280 262 275 263 202 187 158 159 167 172 179 185 196 196 192 186 181 179 178 203 157 168 175 179 184 181 188 191 192 190 191 190 188 194 196 215 212 209 216 207 194 207 219 191 150 148 167 177 191 198 157 153 175 167 153 173 196 206 184 146
349 342 338 335 332 324 318 313 311 320 334 335 337 337 330 327 329 331 341 340 330 314 308 304 293 283 277 259 254 263 191 187 165 149 169 188 195 200 195 190 189 182 184 177 180 182 186 194 190 191 189 192 198 194 195 196 193 193 190 189 200 212 206 205 204 187 194 201 203 158 158 172 183 182 205 156 156 165 148 186 187 204 242 208 134
343 339 333 328 325 318 318 333 343 345 341 338 334 334 337 339 334 327 323 320 310 307 301 292 289 286 272 266 246 238 244 215 201 175 174 192 195 203 199 194 187 186 163 166 197 202 205 210 202 199 195 197 193 196 198 200 198 196 196 193 191 200 208 198 199 187 186 190 203 171 169 172 187 170 206 158 159 160 155 185 195 195 231 189 132
335 331 322 314 329 347 349 345 342 341 334 336 344 344 335 327 316 310 308 308 309 294 285 281 281 274 275 265 256 244 240 239 216 185 172 182 195 203 190 175 170 172 172 191 195 206 208 218 211 203 202 198 196 191 195 200 203 197 197 196 188 189 199 188 191 192 187 183 198 183 177 172 192 168 188 162 167 164 156 189 189 184 228 187 141
333 321 329 358 4 351 345 340 336 329 335 342 338 326 316 308 301 302 306 311 310 308 306 301 288 266 258 279 245 232 233 228 196 161 162 167 171 159 137 120 136 189 210 216 208 207 207 215 223 216 206 198 198 195 194 197 202 200 195 193 186 181 191 189 191 186 193 185 187 189 185 173 186 182 174 167 164 188 163 180 199 180 202 176 137
341 345 351 358 353 347 337 334 329 334 340 331 317 306 304 306 310 311 306 301 307 317 323 318 322 322 307 275 295 355 106 108 135 138 164 149 138 137 155 187 188 196 198 207 213 214 212 212 218 229 225 214 196 198 195 196 199 202 194 190 189 179 187 186 187 185 191 191 182 187 181 190 178 184 172 173 167 188 164 174 195 183 192 179 144
344 345 348 347 346 338 332 328 334 334 322 311 310 313 319 326 333 331 327 320 320 317 313 311 306 303 291 2 63 62 80 122 126 132 137 147 165 169 194 190 202 192 199 206 210 215 215 220 215 228 236 235 213 195 196 195 193 200 194 191 190 180 186 184 184 181 185 193 180 187 181 191 181 182 173 173 170 187 186 167 195 177 182 179 146
342 342 340 348 345 334 331 332 328 323 322 324 329 335 335 331 324 315 312 312 310 305 300 313 315 313 328 25 43 83 71 81 86 80 111 130 161 202 218 216 204 201 202 209 208 210 216 222 219 218 227 232 233 210 194 193 192 195 193 192 191 191 173 175 177 182 183 195 189 186 183 183 189 177 174 164 172 177 198 168 182 169 174 164 151
337 334 340 354 336 332 332 329 329 332 332 334 330 328 329 324 326 334 339 337 330 327 326 321 323 325 325 343 98 113 112 179 202 209 188 196 189 197 213 220 216 218 214 208 210 210 213 216 214 218 243 249 244 231 218 206 198 193 190 189 190 186 171 173 178 183 183 190 195 183 181 177 185 173 173 163 172 173 186 173 178 165 167 166 169
336 335 342 336 329 331 322 330 332 332 333 328 329 332 330 336 336 334 331 327 321 320 316 317 319 322 318 312 317 163 258 235 234 222 191 189 193 205 210 219 223 222 220 213 208 208 212 216 206 210 221 235 257 243 217 228 216 194 187 188 188 190 177 177 178 180 183 185 189 183 178 178 180 167 168 164 174 172 180 180 180 168 164 159 171
336 334 330 327 331 327 335 336 336 336 333 335 336 335 337 333 328 323 319 316 310 307 304 304 306 303 303 299 305 308 268 275 251 229 212 194 194 194 202 213 219 226 224 220 213 210 213 215 213 213 217 213 221 233 233 215 199 185 187 186 182 187 177 179 177 180 178 180 185 183 179 172 174 162 173 175 170 168 180 169 171 158 158 157 162
334 330 329 335 337 337 332 330 329 331 333 335 334 334 328 321 319 322 316 307 306 304 299 293 291 304 317 325 330 332 295 269 292 306 304 283 201 199 204 207 211 222 226 222 215 211 211 212 216 220 226 223 217 221 231 211 193 185 188 190 185 186 180 179 177 177 178 178 185 183 176 176 175 167 167 162 161 171 173 171 173 158 155 158 160
333 333 336 334 335 335 332 328 328 329 330 331 330 320 315 314 320 316 315 313 319 322 324 322 329 335 334 338 333 331 326 316 313 293 285 282 279 253 206 207 216 218 223 222 213 211 208 207 212 216 225 238 245 235 230 222 200 199 205 197 190 184 185 180 174 174 175 173 182 182 177 176 173 164 164 164 161 166 174 172 169 162 156 161 158
338 335 336 335 338 335 335 333 332 331 330 323 316 321 326 326 326 328 334 336 338 336 338 350 354 351 346 355 354 347 345 350 337 324 319 308 302 292 292 285 251 225 224 222 212 205 207 209 211 215 221 231 251 277 301 316 288 219 205 203 193 182 186 179 174 172 172 174 178 178 176 175 174 163 160 169 160 165 175 170 171 170 161 163 161
337 338 343 343 342 340 338 339 339 334 333 329 335 337 340 338 340 339 335 337 346 342 343 349 351 1 353 5 359 354 353 356 1 360 357 351 337 322 303 285 279 267 228 223 215 201 202 211 215 217 220 226 235 242 258 325 324 323 276 208 181 182 184 183 176 173 172 170 170 175 172 170 179 170 167 173 168 166 172 174 171 171 167 165 167
345 348 349 346 342 343 340 342 338 342 338 340 342 345 343 345 343 342 341 352 349 349 349 351 356 1 354 3 359 356 357 355 358 352 358 0 353 347 334 302 273 262 246 233 212 192 195 206 213 217 225 228 232 239 209 247 270 286 313 303 211 174 182 179 168 167 171 168 172 175 174 172 181 179 171 173 173 168 173 169 169 174 178 172 171
352 351 349 346 346 345 345 344 344 342 341 346 349 343 347 348 346 346 350 357 350 352 353 354 356 358 353 1 1 358 354 359 356 347 352 354 359 2 358 358 355 348 302 338 350 41 120 180 206 213 221 223 233 237 213 218 229 262 302 320 310 217 168 177 167 170 171 175 173 170 175 172 179 182 170 169 170 171 170 173 171 176 179 175 167
354 353 349 349 349 349 349 348 346 344 347 350 347 343 347 347 350 349 356 356 354 355 355 356 358 354 356 1 360 1 358 355 353 351 358 359 360 6 4 10 5 354 358 17 7 17 29 60 56 44 33 7 255 248 221 163 201 224 241 291 341 358 3 359 181 166 175 171 171 177 176 176 178 180 173 172 175 172 172 177 171 175 176 176 168
356 353 351 355 354 353 352 349 350 349 350 348 346 347 350 348 352 353 358 356 356 1 357 355 359 356 354 357 0 3 359 358 357 359 359 359 356 4 14 8 9 360 2 11 12 9 3 2 27 61 46 31 12 354 349 26 48 22 348 359 353 1 14 24 12 322 187 163 175 173 179 180 181 184 176 176 177 176 178 177 172 175 174 175 169
359 351 355 354 356 356 356 354 353 350 351 351 350 350 350 350 352 355 359 356 358 1 356 355 360 357 353 357 2 4 2 1 359 357 358 359 359 5 11 8 6 3 4 4 10 9 8 8 6 8 7 1 358 353 353 353 9 31 15 9 14 7 7 4 4 5 340 215 173 177 175 181 184 184 183 182 180 176 179 180 175 174 175 176 179
355 355 354 357 358 357 358 359 357 357 357 355 354 353 351 352 353 354 358 357 358 360 355 358 359 357 358 1 1 0 1 1 359 356 359 1 3 5 13 8 0 0 2 5 11 11 11 10 13 16 22 22 16 9 8 8 4 0 12 13 7 2 9 15 1 340 346 334 242 178 173 181 182 185 185 187 185 185 183 180 175 176 179 180 180